Retour au catalogue

STARLINK-36150

ActifCommunicationsVLEO
NORAD 67031·PAYLOAD·🇺🇸 United States

Lancé Dec 11, 2025 depuis Cape Canaveral Space Force Station

Loading…

Prochains Passages (prochaines 24 heures)

TLE

FraisSource: CelesTrak SupGP

Époque: Sep 15, 2026, 02:52 UTC

1 67031C 25294B   26258.11993056 -.00021870  00000+0 -79203-3 0  2587
2 67031  43.0008  47.8427 0001442 268.8973 145.3592 15.27593822    14

Suivez STARLINK-36150 en temps réel avec AllMySat

Download on the App Store